星链-31615 (STARLINK-31615 )

导读

STARLINK-31615是由美国发射的星链系列卫星,发射时间为2024年4月5日,属于SpaceX星链互联网星座的组成部分,该星座旨在为全球提供高速低延迟宽带互联网服务。星链通过大规模部署低轨卫星组网,填补偏远地区网络覆盖空白,也服务于陆海空多场景移动互联需求。

基本信息
目录编号:
59413
目录名称:
STARLINK-31615
国际标识:
2024-064R
轨道中心:
EARTH
卫星名称:
星链-31615
卫星全名:
星链-31615 (STARLINK-31615 )
卫星状态:
在轨 (已飞行803 天)
发射日期:
2024-04-05 UTC
国别 :
美国 (US)
星等 :
--
轨道信息
数据来源 国际轨道数据 AOE轨道数据
星历时间 2026-06-17T03:21:07+0800
1天前
查看轨道信息
2026-06-17T07:00:00+0800
23小时前
查看轨道信息
半长轴 6861.222km 6861.171km
偏心率 0.0001038 0.0001269
轨道倾角 43.002° 42.998°
近地点辐角 274.914° 272.216°
升交点赤经 209.537° 208.683°
平近点角 85.160° 204.746°
近地点 482.372km 482.163km
远地点 483.798km 483.905km
周期 94.267分钟 94.266分钟
每日圈数 15.275681 15.275853
详细信息
固有亮度:
5
最大亮度:
0.3
卫星平台:
Starlink v2.0 mini
覆盖范围:
全球
运营商:
太空探索技术公司
运营商所在国:
美国
制造商(研发单位):
太空探索技术公司
制造商所在国:
美国
使用方式:
暂无
卫星简介
星链(Starlink)计划是由太空探索技术公司(SpaceX)提出的一个巨型低轨卫星互联网星座项目,计划在2019年至2024年间在太空搭建由约1.2万颗卫星组成的“星链”网络,其中1584颗将部署在地球上空550千米处的近地轨道,并从2020年开始工作。该卫星仍在工作。
2D轨道图
3D轨道图
轨道高度分析图
轨道倾角分析图
轨道综合分析图
查看轨道综合分析图